Location: Champseau
(45.8333°N, 1.7667°E)
Time: 18:26:42
(UTC+00:00)

ERS-1 Rocket - Pass Details

Date: 18 April 2021
Orbit: 753 x 757 km, 98.4° (Epoch: 12 May)

Event Time Altitude Azimuth Distance (km) Brightness Sun altitude
Exits shadow 20:54:40 39° 101° (E) 1,125 3.4 -20.5°
Maximum altitude 20:55:40 44° 69° (ENE) 1,037 3.4 -20.6°
Drops below altitude 10° 21:00:26 10° 358° (N) 2,288 6.1 -21.2°
Sets 21:02:49 0° 352° (N) 3,217 7.1 -21.5°
